Flag for USA

Past Weather in 36°03'25.8"N, 79°56'20.4"W, USA — Yesterday and Last 2 Weeks

Now
58 °F

Rain. Fog.


Feels Like: 57 °F
Forecast: 67 / 58 °F
Wind: 6 mph from Northeast

Location: Piedmont Triad International Airport
Current Time: Sep 25, 2020 at 7:01:24 am
Latest Report: Sep 25, 2020 at 5:54 am
Visibility: 4 mi
Pressure30.05 "Hg
Humidity: 100%
Dew Point: 58 °F
Location of 36°03'25.8"N, 79°56'20.4"WLocation

Past Weather in 36°03'25.8"N, 79°56'20.4"W — Graph

°F

36°03'25.8"N, 79°56'20.4"W Temperature Yesterday

Maximum temperature yesterday: 68 °F (at 1:54 pm)
Minimum temperature yesterday: 59 °F (at 2:54 am)
Average temperature yesterday: 62 °F

High & Low Weather Summary for the Past Weeks

 TemperatureHumidityPressure
High87 °F (Sep 11, 1:54 pm)100% (Sep 10, 5:54 am)30.50 "Hg (Sep 10, 5:54 am)
Low45 °F (Sep 20, 5:54 am)43% (Sep 20, 3:54 pm)29.80 "Hg (Sep 18, 1:54 am)
Average66 °F81%30.13 "Hg
* Reported Sep 10 5:54 am — Sep 25 5:54 am, 36°03'25.8"N, 79°56'20.4"W. Weather by CustomWeather, © 2020

Note: Actual official high and low records may vary slightly from our data, if they occured in-between our weather recording intervals... More about our weather records

36°03'25.8"N, 79°56'20.4"W Weather History for the Previous 24 Hours

Scroll right to see more
 ConditionsComfort  
Time TempWeatherWind HumidityBarometerVisibility
5:54 am
Fri, Sep 25
58 °FRain. Fog.6 mph100%30.05 "Hg4 mi
4:54 am59 °FLight rain. Overcast.3 mph96%30.05 "Hg7 mi
3:54 am59 °FLight rain. Overcast.3 mph100%30.06 "Hg10 mi
2:54 am59 °FOvercast.No wind96%30.07 "Hg10 mi
1:54 am59 °FLight rain. Mostly cloudy.5 mph96%30.06 "Hg10 mi
12:54 am59 °FOvercast.No wind96%30.08 "Hg10 mi
11:54 pm
Thu, Sep 24
59 °FOvercast.5 mph100%30.07 "Hg10 mi
10:54 pm59 °FOvercast.5 mph96%30.06 "Hg10 mi
9:54 pm60 °FOvercast.3 mph93%30.07 "Hg10 mi
8:54 pm60 °FLight rain. Overcast.No wind86%30.07 "Hg10 mi
7:54 pm61 °FLight rain. Overcast.3 mph90%30.08 "Hg10 mi
6:54 pm62 °FLight rain. Overcast.No wind90%30.07 "Hg9 mi
5:54 pm63 °FLight rain. Overcast.No wind84%30.06 "Hg10 mi
4:54 pm63 °FLight rain. Overcast.3 mph81%30.04 "Hg10 mi
3:54 pm65 °FLight rain. Overcast.5 mph73%30.04 "Hg10 mi
2:54 pm67 °FLight rain. Cloudy.6 mph71%30.04 "Hg10 mi
1:54 pm68 °FMostly cloudy.6 mph70%30.05 "Hg10 mi
12:54 pm67 °FMostly cloudy.No wind79%30.05 "Hg10 mi
11:54 am65 °FLight rain. Mostly cloudy.3 mph81%30.06 "Hg10 mi
10:54 am63 °FMore clouds than sun.3 mph90%30.07 "Hg10 mi
9:54 am63 °FLight rain. Mostly cloudy.3 mph87%30.06 "Hg10 mi
8:54 am61 °FOvercast.5 mph93%30.05 "Hg10 mi
7:54 am60 °FMostly cloudy.5 mph93%30.03 "Hg10 mi
Weather by CustomWeather, © 2020

See weather overview